Location: Voyageurs National Park
(48.5020°N, 92.9292°W)
Time: 12:35:51
(UTC-06:00)

Cosmos 2074 Rocket - Pass Details

Date: 19 January 2018
Orbit: 967 x 986 km, 82.9° (Epoch: 22 February)

Event Time Altitude Azimuth Distance (km) Brightness Sun altitude
Rises 06:28:42 0° 202° (SSW) 3,660 6.9 -14.0°
Reaches altitude 10° 06:31:16 10° 206° (SSW) 2,714 6.2 -13.6°
Maximum altitude 06:37:21 55° 284° (WNW) 1,156 4.1 -12.7°
Drops below altitude 10° 06:43:28 10° 2° (N) 2,722 6.2 -11.7°
Sets 06:46:03 0° 7° (N) 3,672 6.9 -11.3°
